Change the Weather History Date:

Wednesday, August 13, 2014

  Actual Average (KFDW) Record (KFDW)
Temperature  
Mean Temperature 78 °F -  
Max Temperature 86 °F 86 °F 98 °F (2010)
Min Temperature 69 °F 67 °F 68 °F (2012)
Cooling Degree Days 12    
Growing Degree Days 28 (Base 50)    
Moisture  
Dew Point 66 °F    
Average Humidity 70    
Maximum Humidity 100    
Minimum Humidity 40    
Precipitation  
Precipitation 0.00 in - - ()
Sea Level Pressure  
Sea Level Pressure 29.94 in    
Wind  
Wind Speed 4 mph (NW)    
Max Wind Speed 10 mph    
Max Gust Speed 20 mph    
Visibility 10 miles    
Events      
Averages and records for this station are not official NWS values.
T = Trace of Precipitation, MM = Missing Value Source: NWS Daily Summary

Daily Weather History Graph

Daily Weather History Graph

Search for Another Location

Airport or City:

Trip Planner

Search our weather history database for the weather conditions in past years. The results will help you decide how hot, cold, wet, or windy it might be!

Date:

Astronomy

Aug. 13, 2014 Rise Set
Actual Time 6:46 AM EDT 8:16 PM EDT
Civil Twilight 6:19 AM EDT 8:42 PM EDT
Nautical Twilight 5:47 AM EDT 9:14 PM EDT
Astronomical Twilight 5:13 AM EDT 9:48 PM EDT
Moon 10:12 PM EDT (8/13) 10:01 AM EDT (8/13)
Length of Visible Light 14h 23m
Length of Day
13h 29m
Waning Gibbous, 88% of the Moon is Illuminated
Aug 13
Waning Gibbous
Aug 17
Last Quarter
Aug 25
New
Sep 2
First Quarter
Sep 8
Full

Hourly Weather History & Observations

Time (EDT) Temp. Heat Index Dew Point Humidity Pressure Visibility Wind Dir Wind Speed Gust Speed Precip Events Conditions
12:15 AM 75.2 °F - 75.2 °F 100% 29.89 in 10.0 mi SSW 4.6 mph - N/A   Clear
12:35 AM 73.4 °F - 73.4 °F 100% 29.89 in 10.0 mi SSW 4.6 mph - N/A   Clear
12:55 AM 73.4 °F - 73.4 °F 100% 29.88 in 10.0 mi SSW 3.5 mph - N/A   Clear
1:15 AM 73.4 °F - 73.4 °F 100% 29.89 in 10.0 mi SSW 4.6 mph - N/A   Clear
1:35 AM 73.4 °F - 73.4 °F 100% 29.89 in 7.0 mi SW 4.6 mph - N/A   Clear
1:55 AM 73.4 °F - 73.4 °F 100% 29.89 in 7.0 mi SW 4.6 mph - N/A   Clear
2:15 AM 73.4 °F - 73.4 °F 100% 29.89 in 10.0 mi West 3.5 mph - N/A   Clear
2:35 AM 73.4 °F - 73.4 °F 100% 29.89 in 7.0 mi West 3.5 mph - N/A   Clear
2:55 AM 73.4 °F - 73.4 °F 100% 29.89 in 7.0 mi West 3.5 mph - N/A   Clear
3:15 AM 73.4 °F - 73.4 °F 100% 29.89 in 10.0 mi NW 3.5 mph - N/A   Clear
3:35 AM 73.4 °F - 73.4 °F 100% 29.89 in 10.0 mi Calm Calm - N/A   Clear
3:55 AM 71.6 °F - 71.6 °F 100% 29.89 in 7.0 mi Calm Calm - N/A   Clear
4:15 AM 71.6 °F - 71.6 °F 100% 29.89 in 10.0 mi Calm Calm - N/A   Clear
4:35 AM 71.6 °F - 71.6 °F 100% 29.90 in 7.0 mi West 3.5 mph - N/A   Clear
4:55 AM 71.6 °F - 71.6 °F 100% 29.90 in 10.0 mi North 3.5 mph - N/A   Scattered Clouds
5:15 AM 71.6 °F - 71.6 °F 100% 29.90 in 10.0 mi Calm Calm - N/A   Clear
5:35 AM 71.6 °F - 71.6 °F 100% 29.91 in 10.0 mi Calm Calm - N/A   Clear
5:55 AM 71.6 °F - 71.6 °F 100% 29.91 in 10.0 mi Calm Calm - N/A   Mostly Cloudy
6:15 AM 71.6 °F - 71.6 °F 100% 29.91 in 10.0 mi NNW 3.5 mph - N/A   Scattered Clouds
6:35 AM 69.8 °F - 69.8 °F 100% 29.92 in 10.0 mi NNW 3.5 mph - N/A   Clear
7:15 AM 69.8 °F - 69.8 °F 100% 29.94 in 7.0 mi Calm Calm - N/A   Scattered Clouds
7:35 AM 69.8 °F - 69.8 °F 100% 29.94 in 7.0 mi Calm Calm - N/A   Clear
7:55 AM 71.6 °F - 69.8 °F 94% 29.94 in 10.0 mi NNW 3.5 mph - N/A   Clear
8:35 AM 73.4 °F - 64.4 °F 73% 29.96 in 10.0 mi NNW 5.8 mph - N/A   Clear
8:55 AM 75.2 °F - 64.4 °F 69% 29.96 in 10.0 mi NW 3.5 mph - N/A   Clear
9:15 AM 77.0 °F - 64.4 °F 65% 29.96 in 10.0 mi NW 3.5 mph - N/A   Clear
9:55 AM 78.8 °F - 64.4 °F 61% 29.97 in 10.0 mi North 5.8 mph - N/A   Clear
10:35 AM 78.8 °F - 62.6 °F 57% 29.97 in 10.0 mi NNE 3.5 mph - N/A   Clear
10:55 AM 80.6 °F 81.8 °F 62.6 °F 54% 29.98 in 10.0 mi Calm Calm - N/A   Clear
11:15 AM 80.6 °F 81.8 °F 62.6 °F 54% 29.98 in 10.0 mi NW 4.6 mph - N/A   Clear
11:35 AM 80.6 °F 81.8 °F 62.6 °F 54% 29.98 in 10.0 mi NE 3.5 mph - N/A   Clear
11:55 AM 82.4 °F 83.4 °F 62.6 °F 51% 29.98 in 10.0 mi WNW 4.6 mph - N/A   Clear
12:15 PM 82.4 °F 82.9 °F 60.8 °F 48% 29.98 in 10.0 mi WSW 3.5 mph - N/A   Clear
12:35 PM 82.4 °F 82.9 °F 60.8 °F 48% 29.98 in 10.0 mi SW 4.6 mph - N/A   Clear
12:55 PM 82.4 °F 82.9 °F 60.8 °F 48% 29.97 in 10.0 mi West 6.9 mph - N/A   Clear
1:15 PM 84.2 °F 84.4 °F 60.8 °F 45% 29.97 in 10.0 mi Calm Calm - N/A   Clear
1:35 PM 86.0 °F 86.1 °F 60.8 °F 43% 29.97 in 10.0 mi North 6.9 mph - N/A   Clear
1:55 PM 86.0 °F 86.1 °F 60.8 °F 43% 29.96 in 10.0 mi NNW 5.8 mph - N/A   Scattered Clouds
2:15 PM 86.0 °F 86.6 °F 62.6 °F 45% 29.96 in 10.0 mi NNW 4.6 mph - N/A   Scattered Clouds
2:35 PM 86.0 °F 86.1 °F 60.8 °F 43% 29.96 in 10.0 mi West 4.6 mph - N/A   Clear
2:55 PM 86.0 °F 86.1 °F 60.8 °F 43% 29.96 in 10.0 mi West 3.5 mph - N/A   Clear
3:15 PM 86.0 °F 86.6 °F 62.6 °F 45% 29.95 in 10.0 mi WNW 5.8 mph - N/A   Clear
3:35 PM 86.0 °F 86.1 °F 60.8 °F 43% 29.95 in 10.0 mi North 4.6 mph - N/A   Scattered Clouds
3:55 PM 86.0 °F 86.6 °F 62.6 °F 45% 29.94 in 10.0 mi NNW 4.6 mph - N/A   Scattered Clouds
4:15 PM 86.0 °F 86.6 °F 62.6 °F 45% 29.94 in 10.0 mi Calm Calm - N/A   Mostly Cloudy
4:35 PM 86.0 °F 86.6 °F 62.6 °F 45% 29.94 in 10.0 mi North 8.1 mph - N/A   Scattered Clouds
4:55 PM 86.0 °F 86.6 °F 62.6 °F 45% 29.94 in 10.0 mi NNW 4.6 mph 19.6 mph N/A   Mostly Cloudy
5:15 PM 86.0 °F 86.1 °F 60.8 °F 43% 29.95 in 10.0 mi NW 8.1 mph - N/A   Scattered Clouds
5:35 PM 86.0 °F 86.1 °F 60.8 °F 43% 29.95 in 10.0 mi NNW 4.6 mph - N/A   Clear
5:55 PM 86.0 °F 86.1 °F 60.8 °F 43% 29.95 in 10.0 mi North 5.8 mph - N/A   Clear
6:15 PM 84.2 °F 83.8 °F 59.0 °F 42% 29.96 in 10.0 mi North 10.4 mph - N/A   Clear
6:35 PM 84.2 °F 83.5 °F 57.2 °F 40% 29.96 in 10.0 mi North 5.8 mph - N/A   Clear
6:55 PM 82.4 °F 82.0 °F 57.2 °F 42% 29.96 in 10.0 mi North 5.8 mph - N/A   Clear
7:15 PM 82.4 °F 82.9 °F 60.8 °F 48% 29.97 in 10.0 mi North 5.8 mph - N/A   Clear
7:35 PM 80.6 °F 81.8 °F 62.6 °F 54% 29.97 in 10.0 mi North 4.6 mph - N/A   Clear
8:15 PM 77.0 °F - 64.4 °F 65% 29.99 in 10.0 mi NNE 3.5 mph - N/A   Clear
8:35 PM 75.2 °F - 64.4 °F 69% 29.99 in 10.0 mi NNE 3.5 mph - N/A   Clear
9:15 PM 73.4 °F - 62.6 °F 69% 30.00 in 10.0 mi Calm Calm - N/A   Clear
10:15 PM 69.8 °F - 62.6 °F 78% 30.01 in 10.0 mi NNE 4.6 mph - N/A   Clear